Satellite: ASTRA 1B
Catalog number: 21139
Epoch time:      103013.00000000
Element set:     157 
Inclination:        0.0122 deg
RA of node:       319.8851 deg
Eccentricity:    0.0002995
Arg of perigee:    65.1991 deg
Mean anomaly:     106.1713 deg
Mean motion:    1.00273184 rev/day
Decay rate:    1.3899E-006 rev/day^2
Epoch rev:            3182
Checksum:              237

Satellite: METEOSAT 5 (MO
Catalog number: 21140
Epoch time:      103021.67567715
Element set:     685 
Inclination:        5.5662 deg
RA of node:        70.1382 deg
Eccentricity:    0.0001525
Arg of perigee:   135.1810 deg
Mean anomaly:     221.4709 deg
Mean motion:    1.00267865 rev/day
Decay rate:    2.3999E-007 rev/day^2
Epoch rev:            4576
Checksum:              291

Satellite: NOAA 12
Catalog number: 21263
Epoch time:      103021.96066337
Element set:     949 
Inclination:       98.6232 deg
RA of node:        12.0609 deg
Eccentricity:    0.0013618
Arg of perigee:   100.2768 deg
Mean anomaly:     259.9947 deg
Mean motion:   14.25062085 rev/day
Decay rate:    4.5599E-006 rev/day^2
Epoch rev:           60728
Checksum:              323

Satellite: OSCAR 22 (UoSA
Catalog number: 21575
Epoch time:      103021.97539039
Element set:     724 
Inclination:       98.1376 deg
RA of node:        15.4926 deg
Eccentricity:    0.0006751
Arg of perigee:   211.0466 deg
Mean anomaly:     149.0322 deg
Mean motion:   14.39135340 rev/day
Decay rate:    4.6700E-006 rev/day^2
Epoch rev:           60431
Checksum:              293

Satellite: METEOR 3-5
Catalog number: 21655
Epoch time:      103022.24850026
Element set:     493 
Inclination:       82.5541 deg
RA of node:        58.1685 deg
Eccentricity:    0.0012262
Arg of perigee:   268.3519 deg
Mean anomaly:      91.6185 deg
Mean motion:   13.16979196 rev/day
Decay rate:    5.1000E-007 rev/day^2
Epoch rev:           54988
Checksum:              320

Satellite: UARS
Catalog number: 21701
Epoch time:      103021.69128571
Element set:     805 
Inclination:       56.9792 deg
RA of node:       144.8794 deg
Eccentricity:    0.0005715
Arg of perigee:   115.3623 deg
Mean anomaly:     244.7953 deg
Mean motion:   15.02798822 rev/day
Decay rate:    1.1060E-005 rev/day^2
Epoch rev:           62152
Checksum:              299

Satellite: EUTELSAT 2-F3
Catalog number: 21803
Epoch time:      103018.86505557
Element set:     510 
Inclination:        2.5220 deg
RA of node:        89.4889 deg
Eccentricity:    0.0002831
Arg of perigee:   229.7037 deg
Mean anomaly:     131.6203 deg
Mean motion:    1.00278675 rev/day
Decay rate:    1.3899E-006 rev/day^2
Epoch rev:            3669
Checksum:              301

Satellite: INMARSAT 2-F3
Catalog number: 21814
Epoch time:      103021.34611760
Element set:     604 
Inclination:        1.6889 deg
RA of node:        56.9907 deg
Eccentricity:    0.0002502
Arg of perigee:   250.3106 deg
Mean anomaly:     155.6026 deg
Mean motion:    1.00275951 rev/day
Decay rate:    1.1700E-006 rev/day^2
Epoch rev:            4061
Checksum:              250

Satellite: INMARSAT 2-F4
Catalog number: 21940
Epoch time:      103020.34919135
Element set:     565 
Inclination:        2.3833 deg
RA of node:        17.7541 deg
Eccentricity:    0.0002167
Arg of perigee:   249.3231 deg
Mean anomaly:      86.9060 deg
Mean motion:    1.00267500 rev/day
Decay rate:   -3.4499E-006 rev/day^2
Epoch rev:            3938
Checksum:              281

Satellite: EUTELSAT 2-F4
Catalog number: 22028
Epoch time:      103021.89697353
Element set:     320 
Inclination:        1.6499 deg
RA of node:        92.9550 deg
Eccentricity:    0.0006090
Arg of perigee:   211.9639 deg
Mean anomaly:     126.5173 deg
Mean motion:    1.00272334 rev/day
Decay rate:   -9.5000E-007 rev/day^2
Epoch rev:            3149
Checksum:              398

Satellite: OSCAR 23 (KITS
Catalog number: 22077
Epoch time:      103021.96863961
Element set:     259 
Inclination:       66.0831 deg
RA of node:       183.5272 deg
Eccentricity:    0.0015113
Arg of perigee:   280.2284 deg
Mean anomaly:      79.7030 deg
Mean motion:   12.86407894 rev/day
Decay rate:   -3.7000E-007 rev/day^2
Epoch rev:           49075
Checksum:              309

Satellite: ASTRA 1C
Catalog number: 22653
Epoch time:      103013.00000000
Element set:     783 
Inclination:        0.0122 deg
RA of node:       319.8851 deg
Eccentricity:    0.0002995
Arg of perigee:    65.1991 deg
Mean anomaly:     106.1253 deg
Mean motion:    1.00273184 rev/day
Decay rate:    1.3899E-006 rev/day^2
Epoch rev:            3052
Checksum:              239

Satellite: METEOR 2-21
Catalog number: 22782
Epoch time:      103022.19786345
Element set:     498 
Inclination:       82.5450 deg
RA of node:       236.6044 deg
Eccentricity:    0.0023639
Arg of perigee:    64.1761 deg
Mean anomaly:     296.1840 deg
Mean motion:   13.83530358 rev/day
Decay rate:    9.5999E-007 rev/day^2
Epoch rev:           47430
Checksum:              338

Satellite: KITSAT B
Catalog number: 22825
Epoch time:      103021.95369210
Element set:     483 
Inclination:       98.2775 deg
RA of node:        53.0549 deg
Eccentricity:    0.0008531
Arg of perigee:   348.2012 deg
Mean anomaly:      11.8969 deg
Mean motion:   14.28933535 rev/day
Decay rate:    2.3200E-006 rev/day^2
Epoch rev:           48593
Checksum:              305

Satellite: POSAT 1
Catalog number: 22826
Epoch time:      103021.63820767
Element set:     304 
Inclination:       98.2779 deg
RA of node:        53.8571 deg
Eccentricity:    0.0009261
Arg of perigee:   347.5890 deg
Mean anomaly:      12.5062 deg
Mean motion:   14.29155287 rev/day
Decay rate:    2.4299E-006 rev/day^2
Epoch rev:           48593
Checksum:              328

Satellite: ITAMSAT
Catalog number: 22828
Epoch time:      103022.11517717
Element set:     407 
Inclination:       98.2745 deg
RA of node:        54.5753 deg
Eccentricity:    0.0009939
Arg of perigee:   325.0247 deg
Mean anomaly:      35.0278 deg
Mean motion:   14.29499150 rev/day
Decay rate:    2.1200E-006 rev/day^2
Epoch rev:           45420
Checksum:              291

Satellite: EYESAT A
Catalog number: 22829
Epoch time:      103022.12931285
Element set:     431 
Inclination:       98.2765 deg
RA of node:        55.1800 deg
Eccentricity:    0.0009716
Arg of perigee:   325.5937 deg
Mean anomaly:      34.4610 deg
Mean motion:   14.29754400 rev/day
Decay rate:    3.2600E-006 rev/day^2
Epoch rev:           48613
Checksum:              391

Satellite: METEOSAT 6
Catalog number: 22912
Epoch time:      103021.82390628
Element set:     647 
Inclination:        2.6126 deg
RA of node:        82.5144 deg
Eccentricity:    0.0001141
Arg of perigee:   261.9860 deg
Mean anomaly:      82.1669 deg
Mean motion:    1.00274107 rev/day
Decay rate:    6.6000E-007 rev/day^2
Epoch rev:            3201
Checksum:              251

Satellite: GOES 8
Catalog number: 23051
Epoch time:      103021.37144942
Element set:     570 
Inclination:        0.2308 deg
RA of node:       105.6780 deg
Eccentricity:    0.0002388
Arg of perigee:   196.5117 deg
Mean anomaly:     236.1092 deg
Mean motion:    1.00257460 rev/day
Decay rate:   -2.4099E-006 rev/day^2
Epoch rev:            3952
Checksum:              269

Satellite: ASTRA 1D
Catalog number: 23331
Epoch time:      103021.80796854
Element set:     805 
Inclination:        0.0460 deg
RA of node:       213.1778 deg
Eccentricity:    0.0002099
Arg of perigee:    94.6320 deg
Mean anomaly:     127.9950 deg
Mean motion:    1.00274877 rev/day
Decay rate:    1.4400E-006 rev/day^2
Epoch rev:            3059
Checksum:              272

Satellite: RADIO ROSTO
Catalog number: 23439
Epoch time:      103020.11389894
Element set:     677 
Inclination:       64.8160 deg
RA of node:        89.1152 deg
Eccentricity:    0.0147630
Arg of perigee:   120.9580 deg
Mean anomaly:     240.5942 deg
Mean motion:   11.27547998 rev/day
Decay rate:   -4.1999E-007 rev/day^2
Epoch rev:           33227
Checksum:              329

Satellite: NOAA 14
Catalog number: 23455
Epoch time:      103021.93456809
Element set:     497 
Inclination:       99.1879 deg
RA of node:        39.7746 deg
Eccentricity:    0.0008799
Arg of perigee:   310.5705 deg
Mean anomaly:      49.4699 deg
Mean motion:   14.13287545 rev/day
Decay rate:    2.6800E-006 rev/day^2
Epoch rev:           41557
Checksum:              467

Satellite: HIMAWARI 5 (GM
Catalog number: 23522
Epoch time:      103021.08070294
Element set:     66 
Inclination:        1.6842 deg
RA of node:        83.2225 deg
Eccentricity:    0.0000702
Arg of perigee:    95.7884 deg
Mean anomaly:     110.2315 deg
Mean motion:    1.00267457 rev/day
Decay rate:   -2.7599E-006 rev/day^2
Epoch rev:            2860
Checksum:              276

Satellite: HOT BIRD 1
Catalog number: 23537
Epoch time:      103013.80550721
Element set:     533 
Inclination:        0.0070 deg
RA of node:       236.2796 deg
Eccentricity:    0.0008090
Arg of perigee:    86.9786 deg
Mean anomaly:      92.5958 deg
Mean motion:    1.00275871 rev/day
Decay rate:    1.0700E-006 rev/day^2
Epoch rev:            2861
Checksum:              279

Satellite: GOES 9
Catalog number: 23581
Epoch time:      103021.36960492
Element set:     483 
Inclination:        0.3472 deg
RA of node:       277.6132 deg
Eccentricity:    0.0009812
Arg of perigee:   231.6430 deg
Mean anomaly:     329.9582 deg
Mean motion:    1.00030644 rev/day
Decay rate:    1.0899E-006 rev/day^2
Epoch rev:            2808
Checksum:              289

